SL-14 DEB, 45285

Orbit data source: Space-Track

SL-14 DEB, 45285 is space debris in LEO originally from a launch on Thu, 15 Aug 1991 UTC launched from the Plesetsk Missile And Space Complex (PKMTR). Debris objects in space refer to the collection of defunct objects orbiting the Earth. Examples of debris include non-operational satellites, rocket bodies, and fragments generated from explosions, collisions, or faulty payload assembly.

Loading next visibility...
Identifier
45285, 1991-056X
Orbit
LEO
Country
Flag of CISCIS
Related business
Manufacturer
Unknown
Mission
Spacecraft
Bus & Motor
Unknown
Mass
Unknown
Launch date (UTC)
1991-08-15 (34 years ago)
Launch vehicle
Unknown
Launch site
Plesetsk Missile And Space Complex (PKMTR)
Object type
Payload
Rocket body
Debris
Shape & HBR
Unknown shape, 0.1 m
Radar Cross Section
Small (<0.1 m²)

Expand to show TLE details & history
Last TLE update: 1 day ago

TLE from 1 day ago
0 SL-14 DEB
1 45285U 91056X   25286.22032695  .00000272  00000-0  83866-3 0  9992
2 45285  82.5708 359.9170 0108212 305.1070  53.9935 13.00485095268601
Epoch: 2025-10-13T05:17Z
TLE epoch observation values (Epoch: 2025-10-13T05:17:16.248Z)
Latitude
-0.00005°
Longitude
-101.42694°
Altitude
1,214.966 km
Speed
7.27 km/s
True Right ascension
23h 59m 40s
True Declination
0° 00' 00"
Sunlit
Object was in full shadow at epoch
Visualization orbit readout
Latitude
Unknown
Longitude
Unknown
Altitude
Unknown
Speed
Unknown
Apparent Right ascension
Unknown
Apparent Declination
Unknown
Sunlit
N/A
Visualization observer readout
Local Sidereal Time
02:54:07
Azimuth
Unknown
Elevation
Unknown
Doppler factor
Unknown
Orbital elements
Apogee altitude
1,340.083 km
Perigee altitude
1,174.83 km
Semi-major axis
7,635.594 km
Eccentricity
0.01082
Inclination
82.5708°
RAAN
359.917°
Arg. of periapsis
305.107°
True anomaly
55.0046°
Mean anomaly
53.9935°
Eccentric anomaly
54.49825°
Mean motion
3.25296 °/min
Orbital period
110.67 mins
BSTAR
0.00083866
Loading maneuver chart data...
Computing Atmospheric mass density...
Loading historical data...
Loading historical data...
Loading historical data...
Loading historical data...
Loading historical data...
Loading historical data...
Loading historical data...

Documentation

Showing up to 5 results
|